Shelbyville, IN

9:15 AM EDT on September 28, 2016 (GMT -0400)
Shelbyville Municipal

Weather History for KGEZ - May, 2014

Change the Weather History Date:

Monday, May 5, 2014

  Actual Average Record
Temperature  
Mean Temperature 61 °F 59 °F  
Max Temperature 74 °F 70 °F 85 °F (2015)
Min Temperature 47 °F 49 °F 35 °F (2011)
Degree Days  
Heating Degree Days 4 7  
Month to date heating degree days 40 36  
Since 1 July heating degree days 5639 5296  
Cooling Degree Days 0 1  
Month to date cooling degree days 0 5  
Year to date cooling degree days 10 18  
Growing Degree Days 10 (Base 50)    
Moisture  
Dew Point 38 °F    
Average Humidity 46    
Maximum Humidity 57    
Minimum Humidity 35    
Precipitation  
Precipitation 0.00 in 0.20 in 0.62 in (2003)
Month to date precipitation T 0.98  
Year to date precipitation 11.34 13.48  
Sea Level Pressure  
Sea Level Pressure 29.90 in    
Wind  
Wind Speed 10 mph (East)    
Max Wind Speed 18 mph    
Max Gust Speed 22 mph    
Visibility 10 miles    
Events      
T = Trace of Precipitation, MM = Missing Value Source: NWS Daily Summary

Daily Weather History Graph

Daily Weather History Graph

Search for Another Location

Airport or City:

Trip Planner

Search our weather history database for the weather conditions in past years. The results will help you decide how hot, cold, wet, or windy it might be!

Date:

Astronomy

May. 05, 2014 Rise Set
Actual Time 6:39 AM EDT 8:41 PM EDT
Civil Twilight 6:09 AM EDT 9:10 PM EDT
Nautical Twilight 5:33 AM EDT 9:46 PM EDT
Astronomical Twilight 4:55 AM EDT 10:25 PM EDT
Moon 11:58 AM EDT (5/5) 1:24 AM EDT (5/5)
Length of Visible Light 15h 00m
Length of Day
14h 01m
Waxing Crescent, 36% of the Moon is Illuminated
May 5
Waxing Crescent
May 6
First Quarter
May 14
Full
May 21
Last Quarter
May 28
New

Hourly Weather History & Observations

Time (EDT) Temp. Dew Point Humidity Pressure Visibility Wind Dir Wind Speed Gust Speed Precip Events Conditions
12:53 AM 52.0 °F 27.0 °F 38% 30.00 in 10.0 mi NE 9.2 mph - N/A   Clear
2:53 AM 50.0 °F 30.0 °F 46% 29.99 in 10.0 mi ESE 6.9 mph - N/A   Clear
3:53 AM 48.0 °F 30.9 °F 52% 29.97 in 10.0 mi ENE 6.9 mph - N/A   Clear
4:53 AM 48.0 °F 30.9 °F 52% 29.97 in 10.0 mi East 5.8 mph - N/A   Clear
5:53 AM 48.0 °F 32.0 °F 54% 29.96 in 10.0 mi ESE 9.2 mph - N/A   Clear
6:53 AM 48.9 °F 32.0 °F 52% 29.97 in 10.0 mi East 8.1 mph - N/A   Clear
7:53 AM 50.0 °F 34.0 °F 54% 29.96 in 10.0 mi ESE 11.5 mph - N/A   Partly Cloudy
8:53 AM 53.1 °F 36.0 °F 52% 29.94 in 10.0 mi ESE 11.5 mph - N/A   Clear
9:53 AM 55.0 °F 36.0 °F 49% 29.91 in 10.0 mi SE 15.0 mph 20.7 mph N/A   Clear
10:53 AM 57.9 °F 37.0 °F 46% 29.90 in 10.0 mi ESE 12.7 mph - N/A   Partly Cloudy
11:53 AM 63.0 °F 37.9 °F 40% 29.91 in 10.0 mi ESE 11.5 mph - N/A   Clear
12:53 PM 66.0 °F 39.9 °F 38% 29.87 in 10.0 mi SE 9.2 mph 19.6 mph N/A   Clear
2:53 PM 72.0 °F 44.1 °F 37% 29.84 in 10.0 mi East 6.9 mph - N/A   Clear
3:53 PM 73.9 °F 45.0 °F 35% 29.83 in 10.0 mi Variable 6.9 mph - N/A   Clear
4:53 PM 73.9 °F 46.0 °F 37% 29.81 in 10.0 mi NE 9.2 mph - N/A   Clear
5:53 PM 73.9 °F 45.0 °F 35% 29.81 in 10.0 mi NE 12.7 mph - N/A   Clear
6:53 PM 71.1 °F 45.0 °F 39% 29.81 in 10.0 mi NE 12.7 mph - N/A   Clear
7:53 PM 66.0 °F 45.0 °F 47% 29.83 in 10.0 mi NE 11.5 mph - N/A   Clear
8:53 PM 63.0 °F 44.1 °F 50% 29.85 in 10.0 mi NE 9.2 mph - N/A   Clear
9:53 PM 61.0 °F 44.1 °F 54% 29.86 in 10.0 mi NE 11.5 mph - N/A   Clear
10:53 PM 60.1 °F 43.0 °F 53% 29.88 in 10.0 mi ENE 9.2 mph - N/A   Clear